OK,93,36,849,93,2014-10-01T01:40:00,0,28072619,197355
OK,93,36,849,93,2014-10-01T01:45:00,0,28073066,197355
OK,93,36,849,93,2014-10-01T01:50:00,0,28073515,197355
OK,93,36,849,93,2014-10-01T01:55:00,0,28073832,197355
OK,93,36,849,93,2014-10-01T02:00:00,0,28074281,197355
OK,93,36,849,93,2014-10-01T02:05:00,0,28074723,197355
OK,93,36,849,93,2014-10-01T02:10:00,0,28075170,197355
OK,93,36,849,93,2014-10-01T02:15:00,0,28075619,197355
OK,93,36,849,93,2014-10-01T02:20:00,0,28076010,197355
OK,93,36,849,93,2014-10-01T02:25:00,0,28076451,197355
OK,93,36,849,93,2014-10-01T02:30:00,0,28076900,197355
OK,93,36,849,93,2014-10-01T02:35:00,0,28077349,197355
OK,93,36,849,93,2014-10-01T02:40:00,0,28077753,197355
OK,93,36,849,93,2014-10-01T02:45:00,0,28078201,197355
OK,93,36,849,93,2014-10-01T02:50:00,0,28078646,197355
OK,93,36,849,93,2014-10-01T02:55:00,0,28079095,197355
OK,93,36,849,93,2014-10-01T03:00:00,0,28079537,197355
OK,93,36,849,93,2014-10-01T03:05:00,0,28079986,197355
OK,93,36,849,93,2014-10-01T03:10:00,0,28080322,197355
OK,93,36,849,93,2014-10-01T03:15:00,0,28080769,197355
OK,93,36,849,93,2014-10-01T03:20:00,0,28081218,197355
OK,93,36,849,93,2014-10-01T03:25:00,0,28081665,197355
OK,93,36,849,93,2014-10-01T03:30:00,0,28082114,197355
OK,93,36,849,93,2014-10-01T03:35:00,0,28082550,197355
OK,93,36,849,93,2014-10-01T03:40:00,0,28082979,197355
OK,93,36,849,93,2014-10-01T03:45:00,0,28083428,197355
OK,93,36,849,93,2014-10-01T03:50:00,0,28083877,197355
OK,93,36,849,93,2014-10-01T03:55:00,0,28084320,197355
OK,93,36,849,93,2014-10-01T04:00:00,0,28084747,197355
OK,93,36,849,93,2014-10-01T04:05:00,0,28085192,197355
OK,93,36,849,93,2014-10-01T04:10:00,0,28085638,197355
OK,93,36,849,93,2014-10-01T04:15:00,0,28086086,197355
OK,93,36,849,93,2014-10-01T04:20:00,0,28086529,197355
OK,93,36,849,93,2014-10-01T04:25:00,0,28086977,197355
OK,93,36,849,93,2014-10-01T04:30:00,0,28087422,197355
OK,93,36,849,93,2014-10-01T04:35:00,0,28087871,197355
OK,93,36,849,93,2014-10-01T04:40:00,0,28088298,197355
OK,93,36,849,93,2014-10-01T04:45:00,0,28088744,197355
OK,93,36,849,93,2014-10-01T04:50:00,0,28089175,197355
OK,93,36,849,93,2014-10-01T04:55:00,0,28089623,197355
OK,93,36,849,93,2014-10-01T05:05:00,0,28090072,197355
OK,93,36,849,93,2014-10-01T05:10:00,0,28090865,197355
OK,93,36,849,93,2014-10-01T05:15:00,0,28091314,197355
OK,93,36,849,93,2014-10-01T05:20:00,0,28091733,197355
OK,93,36,849,93,2014-10-01T05:25:00,0,28092180,197355
OK,93,36,849,93,2014-10-01T05:30:00,0,28092625,197355
OK,93,36,849,93,2014-10-01T05:35:00,0,28093065,197355
OK,93,36,849,93,2014-10-01T05:40:00,0,28093496,197355
OK,93,36,849,93,2014-10-01T05:45:00,0,28093945,197355
OK,93,36,849,93,2014-10-01T05:50:00,0,28094359,197355
OK,93,36,849,93,2014-10-01T05:55:00,0,28094801,197355
OK,93,36,849,93,2014-10-01T06:00:00,0,28095248,197355
OK,76,44,849,76,2014-10-01T06:05:00,3,28095697,197355
OK,76,44,849,76,2014-10-01T06:10:00,3,28096111,197355
OK,76,44,849,76,2014-10-01T06:15:00,0,28096559,197355
OK,76,44,849,76,2014-10-01T06:20:00,0,28096995,197355
OK,76,44,849,76,2014-10-01T06:25:00,0,28097442,197355
OK,76,44,849,76,2014-10-01T06:30:00,0,28097891,197355
OK,76,44,849,76,2014-10-01T06:35:00,0,28098330,197355
OK,76,44,849,76,2014-10-01T06:40:00,0,28098773,197355
OK,76,44,849,76,2014-10-01T06:45:00,0,28099220,197355
OK,76,44,849,76,2014-10-01T06:50:00,0,28099565,197355
OK,76,44,849,76,2014-10-01T06:55:00,0,28100012,197355
OK,76,44,849,76,2014-10-01T07:00:00,0,28100321,197355
OK,117,28,849,117,2014-10-01T07:05:00,1,28100768,197355
OK,117,28,849,117,2014-10-01T07:10:00,1,28101140,197355
OK,117,28,849,117,2014-10-01T07:15:00,0,28101588,197355
OK,47,71,849,47,2014-10-01T07:20:00,1,28102025,197355
OK,47,71,849,47,2014-10-01T07:25:00,0,28102473,197355
OK,47,71,849,47,2014-10-01T07:30:00,0,28102905,197355
OK,47,71,849,47,2014-10-01T07:35:00,0,28103347,197355
OK,47,71,849,47,2014-10-01T07:40:00,0,28103793,197355
OK,47,71,849,47,2014-10-01T07:45:00,0,28104237,197355
OK,47,71,849,47,2014-10-01T07:50:00,0,28104679,197355
OK,47,71,849,47,2014-10-01T07:55:00,0,28105123,197355
OK,47,71,849,47,2014-10-01T08:00:00,0,28105564,197355
OK,47,71,849,47,2014-10-01T08:05:00,0,28106012,197355
OK,47,71,849,47,2014-10-01T08:10:00,0,28106449,197355
OK,47,71,849,47,2014-10-01T08:15:00,0,28106857,197355
OK,47,71,849,47,2014-10-01T08:20:00,0,28107287,197355
OK,47,71,849,47,2014-10-01T08:25:00,0,28107736,197355
OK,47,71,849,47,2014-10-01T08:30:00,0,28108175,197355
OK,47,71,849,47,2014-10-01T08:35:00,0,28108624,197355
OK,47,71,849,47,2014-10-01T08:40:00,0,28109053,197355
OK,47,71,849,47,2014-10-01T08:45:00,0,28109501,197355
OK,47,71,849,47,2014-10-01T08:50:00,0,28109845,197355
OK,65,51,849,65,2014-10-01T08:55:00,2,28110293,197355
OK,64,52,849,64,2014-10-01T09:00:00,2,28110716,197355
OK,64,52,849,64,2014-10-01T09:05:00,0,28111165,197355
OK,64,52,849,64,2014-10-01T09:10:00,0,28111594,197355
OK,64,52,849,64,2014-10-01T09:15:00,0,28112043,197355
OK,64,52,849,64,2014-10-01T09:20:00,0,28112385,197355
OK,64,52,849,64,2014-10-01T09:25:00,0,28112833,197355
OK,64,52,849,64,2014-10-01T09:30:00,0,28113258,197355
OK,64,52,849,64,2014-10-01T09:35:00,0,28113706,197355
OK,64,52,849,64,2014-10-01T09:40:00,0,28114138,197355
OK,64,52,849,64,2014-10-01T09:45:00,0,28114587,197355
OK,64,52,849,64,2014-10-01T09:50:00,0,28114942,197355
OK,64,52,849,64,2014-10-01T09:55:00,0,28115390,197355
OK,64,52,849,64,2014-10-01T10:00:00,0,28115803,197355
OK,64,52,849,64,2014-10-01T10:05:00,0,28116251,197355
OK,64,52,849,64,2014-10-01T10:10:00,0,28116660,197355
OK,64,52,849,64,2014-10-01T10:15:00,0,28117108,197355
OK,64,52,849,64,2014-10-01T10:20:00,0,28117533,197355
OK,61,55,849,61,2014-10-01T10:25:00,2,28117982,197355
OK,61,55,849,61,2014-10-01T10:30:00,2,28118427,197355
OK,66,50,849,66,2014-10-01T10:35:00,2,28118874,197355
OK,66,50,849,66,2014-10-01T10:40:00,0,28119318,197355
OK,66,50,849,66,2014-10-01T10:45:00,0,28119766,197355
OK,66,50,849,66,2014-10-01T10:50:00,0,28120214,197355
OK,66,50,849,66,2014-10-01T10:55:00,0,28120663,197355
OK,66,50,849,66,2014-10-01T11:00:00,0,28121047,197355
OK,66,50,849,66,2014-10-01T11:05:00,0,28121495,197355
OK,66,50,849,66,2014-10-01T11:10:00,0,28121934,197355
OK,66,50,849,66,2014-10-01T11:15:00,0,28122382,197355
OK,66,50,849,66,2014-10-01T11:20:00,0,28122824,197355
OK,66,50,849,66,2014-10-01T11:25:00,0,28123272,197355
OK,66,50,849,66,2014-10-01T11:30:00,0,28123705,197355
OK,66,50,849,66,2014-10-01T11:35:00,0,28124153,197355
OK,66,50,849,66,2014-10-01T11:40:00,0,28124557,197355
OK,66,50,849,66,2014-10-01T11:45:00,0,28125004,197355
OK,66,50,849,66,2014-10-01T11:50:00,0,28125433,197355
OK,66,50,849,66,2014-10-01T11:55:00,0,28125882,197355
OK,66,50,849,66,2014-10-01T12:00:00,0,28126235,197355
OK,66,50,849,66,2014-10-01T12:05:00,0,28126683,197355
OK,66,50,849,66,2014-10-01T12:10:00,0,28127132,197355
OK,66,50,849,66,2014-10-01T12:15:00,0,28127581,197355
OK,66,50,849,66,2014-10-01T12:20:00,0,28128010,197355
OK,66,50,849,66,2014-10-01T12:25:00,0,28128458,197355
OK,66,50,849,66,2014-10-01T12:30:00,0,28128893,197355
OK,66,50,849,66,2014-10-01T12:35:00,0,28129342,197355
OK,66,50,849,66,2014-10-01T12:40:00,0,28129777,197355
OK,66,50,849,66,2014-10-01T12:45:00,0,28130225,197355
OK,66,50,849,66,2014-10-01T12:50:00,0,28130654,197355
OK,66,50,849,66,2014-10-01T12:55:00,0,28131102,197355
OK,66,50,849,66,2014-10-01T13:00:00,0,28131540,197355
OK,66,50,849,66,2014-10-01T13:05:00,0,28131988,197355
OK,66,50,849,66,2014-10-01T13:10:00,0,28132427,197355
OK,66,50,849,66,2014-10-01T13:15:00,0,28132873,197355
OK,54,62,849,54,2014-10-01T13:20:00,1,28133311,197355
OK,54,62,849,54,2014-10-01T13:25:00,1,28133760,197355
OK,54,62,849,54,2014-10-01T13:30:00,0,28134199,197355
OK,54,62,849,54,2014-10-01T13:35:00,0,28134648,197355
OK,54,62,849,54,2014-10-01T13:40:00,0,28135068,197355
OK,54,62,849,54,2014-10-01T13:45:00,0,28135516,197355
OK,54,62,849,54,2014-10-01T13:50:00,0,28135953,197355
OK,54,62,849,54,2014-10-01T13:55:00,0,28136402,197355
OK,54,62,849,54,2014-10-01T14:00:00,0,28136842,197355
OK,54,62,849,54,2014-10-01T14:05:00,0,28137291,197355
OK,54,62,849,54,2014-10-01T14:10:00,0,28137725,197355
OK,54,62,849,54,2014-10-01T14:15:00,0,28138174,197355
OK,54,62,849,54,2014-10-01T14:20:00,0,28138603,197355
OK,54,62,849,54,2014-10-01T14:25:00,0,28139051,197355
OK,54,62,849,54,2014-10-01T14:30:00,0,28139463,197355
OK,54,62,849,54,2014-10-01T14:35:00,0,28139911,197355
OK,54,62,849,54,2014-10-01T14:40:00,0,28140354,197355
OK,54,62,849,54,2014-10-01T14:45:00,0,28140802,197355
OK,54,62,849,54,2014-10-01T14:50:00,0,28141229,197355
OK,54,62,849,54,2014-10-01T14:55:00,0,28141677,197355
OK,54,62,849,54,2014-10-01T15:00:00,0,28142106,197355
OK,54,62,849,54,2014-10-01T15:05:00,0,28142554,197355
OK,54,62,849,54,2014-10-01T15:10:00,0,28142982,197355
OK,54,62,849,54,2014-10-01T15:15:00,0,28143430,197355
OK,54,62,849,54,2014-10-01T15:20:00,0,28143878,197355
OK,54,62,849,54,2014-10-01T15:25:00,0,28144327,197355
OK,54,62,849,54,2014-10-01T15:30:00,0,28144750,197355
OK,57,58,849,57,2014-10-01T15:35:00,1,28145162,197355
OK,57,58,849,57,2014-10-01T15:40:00,0,28145611,197355
OK,57,58,849,57,2014-10-01T15:45:00,0,28146060,197355
OK,57,58,849,57,2014-10-01T15:50:00,0,28146509,197355
OK,57,58,849,57,2014-10-01T15:55:00,0,28146920,197355
OK,57,58,849,57,2014-10-01T16:00:00,0,28147361,197355
OK,57,58,849,57,2014-10-01T16:05:00,0,28147810,197355
OK,57,58,849,57,2014-10-01T16:10:00,0,28148212,197355
OK,57,58,849,57,2014-10-01T16:15:00,0,28148660,197355
OK,57,58,849,57,2014-10-01T16:20:00,0,28149100,197355
OK,57,58,849,57,2014-10-01T16:25:00,0,28149548,197355
OK,57,58,849,57,2014-10-01T16:30:00,0,28149975,197355
OK,57,58,849,57,2014-10-01T16:35:00,0,28150423,197355
OK,57,58,849,57,2014-10-01T16:40:00,0,28150842,197355
OK,57,58,849,57,2014-10-01T16:45:00,0,28151290,197355
OK,57,58,849,57,2014-10-01T16:50:00,0,28151739,197355
OK,57,58,849,57,2014-10-01T17:00:00,0,28152188,197355
OK,57,58,849,57,2014-10-01T17:05:00,0,28152634,197355
OK,57,58,849,57,2014-10-01T17:10:00,0,28153081,197355
OK,57,58,849,57,2014-10-01T17:15:00,0,28153530,197355
OK,57,58,849,57,2014-10-01T17:20:00,0,28153942,197355
OK,57,58,849,57,2014-10-01T17:25:00,0,28154389,197355
OK,57,58,849,57,2014-10-01T17:30:00,0,28154831,197355
OK,57,58,849,57,2014-10-01T17:35:00,0,28155279,197355
OK,57,58,849,57,2014-10-01T17:40:00,0,28155699,197355
OK,57,58,849,57,2014-10-01T17:45:00,0,28156146,197355
OK,57,58,849,57,2014-10-01T17:50:00,0,28156595,197355
OK,57,58,849,57,2014-10-01T17:55:00,0,28157033,197355
OK,57,58,849,57,2014-10-01T18:00:00,0,28157464,197355
OK,57,58,849,57,2014-10-01T18:05:00,0,28157911,197355
OK,57,58,849,57,2014-10-01T18:10:00,0,28158355,197355
OK,57,58,849,57,2014-10-01T18:15:00,0,28158801,197355
OK,57,58,849,57,2014-10-01T18:20:00,0,28159247,197355
OK,57,58,849,57,2014-10-01T18:25:00,0,28159583,197355
OK,57,58,849,57,2014-10-01T18:30:00,0,28160031,197355
OK,57,58,849,57,2014-10-01T18:35:00,0,28160480,197355
OK,57,58,849,57,2014-10-01T18:40:00,0,28160919,197355
OK,57,58,849,57,2014-10-01T18:45:00,0,28161367,197355
OK,57,58,849,57,2014-10-01T18:50:00,0,28161784,197355
OK,57,58,849,57,2014-10-01T18:55:00,0,28162233,197355
OK,57,58,849,57,2014-10-01T19:00:00,0,28162633,197355
OK,57,58,849,57,2014-10-01T19:05:00,0,28163066,197355
OK,57,58,849,57,2014-10-01T19:10:00,0,28163514,197355
OK,57,58,849,57,2014-10-01T19:15:00,0,28163963,197355
OK,57,58,849,57,2014-10-01T19:20:00,0,28164395,197355
OK,57,58,849,57,2014-10-01T19:25:00,0,28164843,197355
OK,57,58,849,57,2014-10-01T19:30:00,0,28165269,197355
OK,57,58,849,57,2014-10-01T19:35:00,0,28165716,197355
OK,57,58,849,57,2014-10-01T19:40:00,0,28166157,197355
OK,57,58,849,57,2014-10-01T19:45:00,0,28166519,197355
OK,57,58,849,57,2014-10-01T19:50:00,0,28166968,197355
OK,57,58,849,57,2014-10-01T19:55:00,0,28167397,197355
OK,57,58,849,57,2014-10-01T20:00:00,0,28167831,197355
OK,57,58,849,57,2014-10-01T20:05:00,0,28168279,197355
OK,57,58,849,57,2014-10-01T20:10:00,0,28168724,197355
OK,57,58,849,57,2014-10-01T20:15:00,0,28169173,197355
OK,57,58,849,57,2014-10-01T20:20:00,0,28169621,197355
OK,57,58,849,57,2014-10-01T20:25:00,0,28170047,197355
OK,57,58,849,57,2014-10-01T20:30:00,1,28170492,197355
OK,57,58,849,57,2014-10-01T20:35:00,0,28170940,197355
OK,57,58,849,57,2014-10-01T20:40:00,0,28171377,197355
OK,57,58,849,57,2014-10-01T20:45:00,0,28171823,197355
OK,57,58,849,57,2014-10-01T20:50:00,0,28172271,197355
OK,57,58,849,57,2014-10-01T20:55:00,0,28172717,197355
OK,57,58,849,57,2014-10-01T21:00:00,0,28173163,197355
OK,57,58,849,57,2014-10-01T21:05:00,0,28173612,197355
OK,57,58,849,57,2014-10-01T21:10:00,0,28174053,197355
OK,57,58,849,57,2014-10-01T21:15:00,0,28174502,197355
OK,57,58,849,57,2014-10-01T21:20:00,0,28174928,197355
OK,57,58,849,57,2014-10-01T21:25:00,0,28175324,197355
OK,57,58,849,57,2014-10-01T21:30:00,0,28175773,197355
OK,57,58,849,57,2014-10-01T21:35:00,0,28176222,197355
OK,57,58,849,57,2014-10-01T21:40:00,0,28176671,197355
OK,57,58,849,57,2014-10-01T21:45:00,0,28177033,197355
OK,57,58,849,57,2014-10-01T21:50:00,0,28177467,197355
OK,57,58,849,57,2014-10-01T21:55:00,0,28177913,197355
OK,57,58,849,57,2014-10-01T22:00:00,0,28178362,197355
OK,57,58,849,57,2014-10-01T22:05:00,0,28178809,197355
OK,57,58,849,57,2014-10-01T22:10:00,0,28179244,197355
OK,57,58,849,57,2014-10-01T22:15:00,0,28179686,197355
OK,57,58,849,57,2014-10-01T22:20:00,0,28180133,197355
OK,57,58,849,57,2014-10-01T22:25:00,0,28180531,197355
OK,57,58,849,57,2014-10-01T22:30:00,0,28180980,197355
OK,57,58,849,57,2014-10-01T22:35:00,0,28181404,197355
OK,57,58,849,57,2014-10-01T22:40:00,0,28181852,197355
OK,57,58,849,57,2014-10-01T22:45:00,0,28182299,197355
OK,57,58,849,57,2014-10-01T22:50:00,0,28182748,197355
OK,57,58,849,57,2014-10-01T22:55:00,0,28183165,197355
OK,57,58,849,57,2014-10-01T23:00:00,0,28183598,197355
OK,57,58,849,57,2014-10-01T23:05:00,0,28184043,197355
OK,57,58,849,57,2014-10-01T23:10:00,0,28184492,197355
OK,57,58,849,57,2014-10-01T23:15:00,0,28184927,197355
OK,57,58,849,57,2014-10-01T23:20:00,0,28185375,197355
OK,57,58,849,57,2014-10-01T23:25:00,0,28185806,197355
OK,57,58,849,57,2014-10-01T23:30:00,0,28186198,197355
OK,57,58,849,57,2014-10-01T23:40:00,0,28187045,197355
OK,57,58,849,57,2014-10-01T23:55:00,0,28188377,197355
OK,57,58,849,57,2014-10-02T00:00:00,0,28188813,197355
OK,57,58,849,57,2014-10-02T00:05:00,0,28189262,197355
OK,57,58,849,57,2014-10-02T00:10:00,0,28189685,197355
OK,57,58,849,57,2014-10-02T00:15:00,0,28190133,197355
OK,57,58,849,57,2014-10-02T00:20:00,0,28190487,197355
OK,57,58,849,57,2014-10-02T00:25:00,0,28190935,197355
OK,57,58,849,57,2014-10-02T00:30:00,0,28191384,197355
OK,57,58,849,57,2014-10-02T00:35:00,0,28191691,197355
OK,57,58,849,57,2014-10-02T00:40:00,0,28192139,197355
OK,57,58,849,57,2014-10-02T00:45:00,0,28192572,197355
OK,57,58,849,57,2014-10-02T00:50:00,0,28193016,197355
OK,57,58,849,57,2014-10-02T00:55:00,0,28193383,197355
OK,57,58,849,57,2014-10-02T01:05:00,0,28194281,197355
OK,57,58,849,57,2014-10-02T01:15:00,0,28194730,197355
OK,57,58,849,57,2014-10-02T01:20:00,0,28195415,197355
OK,57,58,849,57,2014-10-02T01:30:00,0,28195864,197355
OK,57,58,849,57,2014-10-02T01:35:00,0,28196597,197355
OK,57,58,849,57,2014-10-02T01:40:00,0,28197021,197355
OK,57,58,849,57,2014-10-02T01:45:00,0,28197469,197355
OK,57,58,849,57,2014-10-02T01:50:00,0,28197917,197355
OK,57,58,849,57,2014-10-02T01:55:00,0,28198365,197355
OK,57,58,849,57,2014-10-02T02:00:00,0,28198814,197355
OK,57,58,849,57,2014-10-02T02:05:00,0,28199194,197355
OK,57,58,849,57,2014-10-02T02:10:00,0,28199628,197355
OK,57,58,849,57,2014-10-02T02:15:00,0,28200070,197355
OK,57,58,849,57,2014-10-02T02:20:00,0,28200513,197355
OK,57,58,849,57,2014-10-02T02:25:00,0,28200962,197355
OK,57,58,849,57,2014-10-02T02:30:00,0,28201393,197355
OK,57,58,849,57,2014-10-02T02:45:00,0,28202291,197355
OK,57,58,849,57,2014-10-02T02:50:00,0,28202733,197355
OK,57,58,849,57,2014-10-02T02:55:00,0,28203181,197355
OK,57,58,849,57,2014-10-02T03:00:00,0,28203616,197355
OK,57,58,849,57,2014-10-02T03:10:00,0,28204065,197355
OK,57,58,849,57,2014-10-02T03:25:00,0,28204514,197355
OK,57,58,849,57,2014-10-02T03:30:00,0,28204963,197355
OK,57,58,849,57,2014-10-02T03:35:00,0,28205392,197355
OK,57,58,849,57,2014-10-02T03:40:00,0,28205838,197355
OK,57,58,849,57,2014-10-02T03:45:00,0,28206221,197355
OK,57,58,849,57,2014-10-02T03:55:00,0,28207119,197355
OK,57,58,849,57,2014-10-02T04:00:00,0,28207540,197355
OK,57,58,849,57,2014-10-02T04:05:00,0,28207987,197355
OK,57,58,849,57,2014-10-02T04:10:00,0,28208416,197355
OK,57,58,849,57,2014-10-02T04:15:00,0,28208863,197355
OK,57,58,849,57,2014-10-02T04:20:00,0,28209301,197355
OK,57,58,849,57,2014-10-02T04:25:00,0,28209750,197355
OK,57,58,849,57,2014-10-02T04:30:00,0,28210173,197355
OK,57,58,849,57,2014-10-02T04:35:00,0,28210622,197355
OK,57,58,849,57,2014-10-02T04:40:00,0,28211048,197355
OK,57,58,849,57,2014-10-02T04:45:00,0,28211491,197355
OK,57,58,849,57,2014-10-02T04:50:00,0,28211869,197355
OK,57,58,849,57,2014-10-02T04:55:00,0,28212318,197355
OK,57,58,849,57,2014-10-02T05:00:00,0,28212747,197355
OK,57,58,849,57,2014-10-02T05:05:00,0,28213196,197355
OK,57,58,849,57,2014-10-02T05:10:00,0,28213634,197355
OK,57,58,849,57,2014-10-02T05:15:00,0,28214083,197355
OK,57,58,849,57,2014-10-02T05:20:00,0,28214498,197355
OK,100,33,849,100,2014-10-02T05:25:00,1,28214945,197355
OK,100,33,849,100,2014-10-02T05:30:00,0,28215362,197355
OK,100,33,849,100,2014-10-02T05:40:00,0,28215810,197355
OK,100,33,849,100,2014-10-02T05:45:00,0,28216589,197355
OK,100,33,849,100,2014-10-02T05:50:00,0,28217036,197355
OK,140,24,849,140,2014-10-02T05:55:00,1,28217485,197355
OK,140,24,849,140,2014-10-02T06:00:00,0,28217924,197355
OK,74,45,849,74,2014-10-02T06:05:00,1,28218373,197355
OK,74,45,849,74,2014-10-02T06:10:00,0,28218793,197355
OK,74,45,849,74,2014-10-02T06:15:00,0,28219242,197355
OK,74,45,849,74,2014-10-02T06:20:00,0,28219616,197355
OK,66,50,849,66,2014-10-02T06:25:00,2,28220064,197355
OK,66,50,849,66,2014-10-02T06:30:00,2,28220499,197355
OK,66,50,849,66,2014-10-02T06:35:00,0,28220947,197355
OK,66,50,849,66,2014-10-02T06:40:00,0,28221335,197355
OK,66,50,849,66,2014-10-02T06:45:00,0,28221614,197355
OK,66,50,849,66,2014-10-02T07:00:00,0,28222208,197355
OK,66,50,849,66,2014-10-02T07:05:00,0,28222657,197355
OK,66,50,849,66,2014-10-02T07:10:00,0,28223089,197355
OK,66,50,849,66,2014-10-02T07:15:00,0,28223524,197355
OK,66,50,849,66,2014-10-02T07:20:00,0,28223971,197355
OK,66,50,849,66,2014-10-02T07:25:00,0,28224326,197355
OK,66,50,849,66,2014-10-02T07:30:00,0,28224775,197355
OK,66,50,849,66,2014-10-02T07:35:00,0,28225224,197355
OK,66,50,849,66,2014-10-02T07:40:00,0,28225548,197355
OK,66,50,849,66,2014-10-02T07:50:00,0,28226436,197355
OK,66,50,849,66,2014-10-02T07:55:00,0,28226885,197355
OK,66,50,849,66,2014-10-02T08:00:00,0,28227301,197355
OK,85,39,849,85,2014-10-02T08:05:00,1,28227749,197355
OK,85,39,849,85,2014-10-02T08:10:00,0,28228109,197355
OK,85,39,849,85,2014-10-02T08:15:00,0,28228557,197355
OK,85,39,849,85,2014-10-02T08:20:00,0,28228968,197355
OK,85,39,849,85,2014-10-02T08:25:00,0,28229416,197355
OK,85,39,849,85,2014-10-02T08:30:00,0,28229767,197355
OK,242,13,849,242,2014-10-02T08:35:00,1,28230215,197355
OK,242,13,849,242,2014-10-02T08:40:00,0,28230586,197355
OK,242,13,849,242,2014-10-02T08:45:00,0,28231030,197355
OK,242,13,849,242,2014-10-02T08:50:00,0,28231453,197355
OK,242,13,849,242,2014-10-02T08:55:00,0,28231902,197355
OK,242,13,849,242,2014-10-02T09:00:00,0,28232245,197355
OK,242,13,849,242,2014-10-02T09:10:00,0,28232693,197355
OK,242,13,849,242,2014-10-02T09:15:00,0,28233142,197355
OK,242,13,849,242,2014-10-02T09:20:00,0,28233566,197355
OK,242,13,849,242,2014-10-02T09:25:00,0,28234015,197355
OK,242,13,849,242,2014-10-02T09:30:00,0,28234349,197355
OK,242,13,849,242,2014-10-02T09:35:00,0,28234797,197355
OK,242,13,849,242,2014-10-02T09:40:00,0,28235224,197355
OK,242,13,849,242,2014-10-02T09:45:00,0,28235673,197355
OK,242,13,849,242,2014-10-02T09:50:00,0,28236117,197355
OK,242,13,849,242,2014-10-02T09:55:00,0,28236563,197355
OK,242,13,849,242,2014-10-02T10:00:00,0,28236966,197355
OK,242,13,849,242,2014-10-02T10:05:00,0,28237414,197355
OK,242,13,849,242,2014-10-02T10:10:00,0,28237862,197355
OK,242,13,849,242,2014-10-02T10:15:00,0,28238310,197355
OK,58,57,849,58,2014-10-02T10:20:00,1,28238750,197355
OK,58,57,849,58,2014-10-02T10:25:00,0,28239199,197355
OK,58,57,849,58,2014-10-02T10:30:00,0,28239630,197355
OK,142,23,849,142,2014-10-02T10:35:00,1,28240078,197355
OK,142,23,849,142,2014-10-02T10:40:00,0,28240523,197355
OK,142,23,849,142,2014-10-02T10:45:00,0,28240971,197355
OK,142,23,849,142,2014-10-02T10:50:00,0,28241404,197355
OK,142,23,849,142,2014-10-02T10:55:00,0,28241851,197355
OK,142,23,849,142,2014-10-02T11:00:00,0,28242248,197355
OK,142,23,849,142,2014-10-02T11:05:00,0,28242696,197355
OK,142,23,849,142,2014-10-02T11:15:00,0,28243145,197355
OK,142,23,849,142,2014-10-02T11:20:00,0,28243908,197355
OK,142,23,849,142,2014-10-02T11:25:00,0,28244338,197355
OK,142,23,849,142,2014-10-02T11:30:00,0,28244786,197355
OK,142,23,849,142,2014-10-02T11:35:00,0,28245235,197355
OK,142,23,849,142,2014-10-02T11:40:00,0,28245642,197355
OK,142,23,849,142,2014-10-02T11:45:00,0,28246090,197355
OK,142,23,849,142,2014-10-02T11:50:00,0,28246527,197355
OK,142,23,849,142,2014-10-02T11:55:00,0,28246976,197355
OK,142,23,849,142,2014-10-02T12:00:00,0,28247422,197355
OK,142,23,849,142,2014-10-02T12:05:00,0,28247853,197355
OK,142,23,849,142,2014-10-02T12:10:00,0,28248301,197355
OK,62,54,849,62,2014-10-02T12:15:00,0,28248749,197355
OK,62,54,849,62,2014-10-02T12:20:00,0,28249176,197355
OK,62,54,849,62,2014-10-02T12:25:00,0,28249620,197355
OK,62,54,849,62,2014-10-02T12:30:00,0,28250039,197355
OK,62,54,849,62,2014-10-02T12:35:00,0,28250437,197355
OK,62,54,849,62,2014-10-02T12:45:00,0,28251217,197355
OK,78,43,849,78,2014-10-02T13:20:00,2,28251762,197355
OK,101,33,849,101,2014-10-02T13:30:00,0,28252346,197355
OK,101,33,849,101,2014-10-02T13:35:00,0,28252788,197355
OK,101,33,849,101,2014-10-02T13:40:00,0,28253205,197355
OK,63,53,849,63,2014-10-02T13:45:00,1,28253654,197355
OK,63,53,849,63,2014-10-02T13:50:00,0,28254060,197355
OK,63,53,849,63,2014-10-02T13:55:00,0,28254380,197355
OK,63,53,849,63,2014-10-02T14:10:00,0,28254957,197355
OK,63,53,849,63,2014-10-02T14:15:00,0,28255406,197355
OK,63,53,849,63,2014-10-02T14:20:00,0,28255834,197355
OK,63,53,849,63,2014-10-02T14:25:00,0,28256283,197355
OK,63,53,849,63,2014-10-02T14:30:00,0,28256711,197355
OK,63,53,849,63,2014-10-02T14:35:00,0,28257160,197355
OK,63,53,849,63,2014-10-02T14:40:00,0,28257601,197355
OK,63,53,849,63,2014-10-02T14:45:00,0,28258049,197355
OK,63,53,849,63,2014-10-02T14:50:00,0,28258482,197355
OK,63,53,849,63,2014-10-02T14:55:00,0,28258928,197355
OK,63,53,849,63,2014-10-02T15:00:00,0,28259377,197355
OK,63,53,849,63,2014-10-02T15:05:00,0,28259824,197355
OK,63,53,849,63,2014-10-02T15:10:00,0,28260257,197355
OK,63,53,849,63,2014-10-02T15:15:00,0,28260706,197355
OK,63,53,849,63,2014-10-02T15:20:00,0,28261146,197355
OK,63,53,849,63,2014-10-02T15:25:00,0,28261528,197355
OK,63,53,849,63,2014-10-02T15:30:00,0,28261958,197355
OK,63,53,849,63,2014-10-02T15:35:00,0,28262405,197355
OK,63,53,849,63,2014-10-02T15:40:00,0,28262851,197355
OK,63,53,849,63,2014-10-02T15:45:00,0,28263289,197355
OK,63,53,849,63,2014-10-02T15:50:00,0,28263730,197355
OK,63,53,849,63,2014-10-02T15:55:00,0,28264132,197355
OK,63,53,849,63,2014-10-02T16:00:00,0,28264581,197355
OK,49,68,849,49,2014-10-02T16:05:00,1,28265019,197355
OK,49,68,849,49,2014-10-02T16:10:00,0,28265459,197355
OK,49,68,849,49,2014-10-02T16:15:00,0,28265855,197355